Location: Newark
(37.8333°N, 119.5000°W)
Time: 16:48:42
(UTC+00:00)

Tiros 1 despin weight - Pass Details

Date: 26 August 2019
Orbit: 594 x 642 km, 48.2° (Epoch: 17 September)

Event Time Altitude Azimuth Distance (km) Brightness Sun altitude
Rises 09:29:40 0° 300° (WNW) 2,852 - -37.4°
Reaches altitude 10° 09:32:21 10° 315° (NW) 1,956 - -37.1°
Maximum altitude 09:35:58 23° 9° (N) 1,300 - -36.8°
Exits shadow 09:38:32 15° 52° (NE) 1,670 ? -36.5°
Drops below altitude 10° 09:39:37 10° 63° (ENE) 1,978 ? -36.4°
Sets 09:42:20 0° 78° (ENE) 2,893 ? -36.1°
